[[{"header":{"parameterUnit":"m.s-1","parameterCategory":1,"la1":30.2991,"la2":30.254,"lo1":-89.0895,"lo2":-89.0444,"dy":0.0017,"dx":0.0017,"nx":28,"ny":28,"refTime":"2025-08-19T09:00:00:Z","depth":0,"parameterNumber":2,"parameterNumberName":"U-component_of_WINDS"},"data":[0,0,0,0,0,0,0,0,0,0,0,0,0,0,0,0,0,0,0,0,0,0,0,0,0,0,0,0,0,0,0,0,0,0,0,0,0,0,0,0,0,0,0,0,0,0,0,0,0,0,0,0,0,0,0,0,0,0,3.7376,3.7379,0,3.762,3.7623,3.7626,3.7617,3.7614,3.7611,3.7607,3.7864,3.7874,3.7883,0,0,0,0,0,0,0,0,0,0,0,0,0,3.6908,3.6917,3.7376,3.7379,3.7382,3.762,3.7623,3.7626,3.7618,3.7614,3.761,3.7606,3.7861,3.7872,3.7884,0,0,0,0,0,0,0,0,0,0,0,0,0,3.7128,3.692,3.7375,3.7406,3.7411,3.7619,3.7623,3.7627,3.7619,3.7614,3.7609,3.7604,3.7857,3.7871,3.7886,3.8081,0,0,3.7932,3.7938,0,0,0,0,0,0,0,0,3.7116,3.7145,3.7399,3.7404,3.7411,3.7583,3.7552,3.7779,3.762,3.754,3.7607,3.7601,3.7775,3.7796,3.7854,3.8093,3.8104,3.7933,3.7942,3.7949,3.7953,0,0,0,0,0,0,0,3.71,3.7135,3.7473,3.7402,3.741,3.741,3.7435,3.7595,3.7684,3.7547,3.7547,3.7575,3.7777,3.7839,3.7859,3.8107,3.7933,3.7946,3.7955,3.7961,3.852,3.8526,0,0,0,0,0,0,3.7078,3.7122,3.7465,3.748,3.7247,3.7422,3.7451,3.7533,3.7682,3.7699,3.758,3.7574,3.7816,3.7842,3.7868,3.8107,3.7949,3.7963,3.7971,3.8514,3.8521,3.8528,0,0,0,0,0,0,3.7068,3.7108,3.7455,3.7301,3.7345,3.7436,3.7528,3.754,3.7602,3.7706,3.7723,3.7626,3.7813,3.7847,3.8028,3.8116,3.7969,3.7983,3.8507,3.8517,3.8525,3.8585,0,0,0,0,0,0,3.7054,3.7105,3.7178,3.7303,3.7353,3.7609,3.7533,3.7549,3.7627,3.7622,3.7754,3.7771,3.7812,3.8005,3.8043,3.8134,3.7995,3.85,3.8512,3.8522,3.8576,3.8595,3.8611,0,0,0,0,0,3.7038,3.7187,3.7182,3.7223,3.7447,3.7614,3.7643,3.7684,3.7634,3.771,3.7777,3.7767,3.81,3.8024,3.8066,3.8163,3.8495,3.8508,3.8521,3.8568,3.8591,3.8611,0,0,0,0,0,0,3.7073,3.7204,3.72,3.7393,3.7492,3.7612,3.7708,3.7708,3.7824,3.7815,3.7864,3.7894,3.8075,3.8137,3.805,3.836,3.8291,3.8313,3.8313,3.8336,3.8353,3.8335,3.8007,0,0,0,0,0,3.7102,3.7225,3.7333,3.7494,3.7543,3.7617,3.7692,3.7715,3.782,3.7862,3.7943,3.8047,3.8175,3.8259,3.8382,3.8584,3.8614,3.8672,3.869,3.8704,3.8723,3.8836,3.8863,3.8571,3.8571,3.8571,0,0,3.7166,3.7253,3.7327,3.7503,3.7582,3.771,3.7653,3.779,3.7886,3.7884,3.8059,3.8122,3.8241,3.8434,3.8522,3.8491,3.881,3.8721,3.8731,3.8743,3.8852,3.888,3.8904,3.858,3.8578,3.8577,0,0,3.7347,3.7424,3.7567,3.7647,3.7767,3.7815,3.7849,3.797,3.8011,3.8186,3.8188,3.8303,3.8523,3.8608,3.868,3.8894,3.889,3.8933,3.9027,3.9136,3.9159,3.918,3.9258,3.9285,3.8952,3.8952,3.8952,0,3.7412,3.7602,3.7641,3.7779,3.7857,3.7858,3.8004,3.8081,3.8236,3.8291,3.8253,3.8528,3.8609,3.8822,3.8874,3.8932,3.8974,3.8919,3.9152,3.9174,3.9194,3.9268,3.9297,3.8956,3.8956,3.8955,3.8955,0,3.7677,3.7809,3.791,3.8057,3.8147,3.8288,3.835,3.8436,3.8451,3.8504,3.8684,3.8781,3.8924,3.8976,3.8994,3.9192,3.9169,3.9141,3.9074,3.9225,3.9296,3.9325,3.8963,3.8961,3.896,3.8959,0,0,3.7888,3.8054,3.8091,3.8158,3.829,3.8394,3.8536,3.8675,3.8748,3.8855,3.8977,3.9163,3.9137,3.922,3.9246,3.9342,3.9507,3.9303,3.9307,3.9339,3.9734,3.9755,3.9787,3.9504,3.951,3.9514,3.9724,0,3.8084,3.8334,3.8372,3.8593,3.8717,3.872,3.8844,3.894,3.8993,3.9107,3.9167,3.9298,3.9254,3.9304,3.9399,3.9467,3.9587,3.9452,3.962,3.9626,3.9591,3.9824,3.9847,4.004,3.9752,3.9757,3.976,0,3.8347,3.8458,3.8691,3.8806,3.886,3.897,3.9101,3.9209,3.9318,3.935,3.9442,3.9457,3.9607,3.9531,3.974,3.9647,3.9718,3.9762,3.977,3.9789,3.9703,3.985,4.0102,4.0132,3.9804,3.98,3.9797,0,3.8479,3.8688,3.8854,3.8911,3.905,3.9128,3.919,3.9294,3.9375,3.9489,3.9543,3.9674,3.9746,3.9848,3.9899,3.9839,4.0105,4.0033,4.0138,4.0137,4.0195,4.019,4.0463,4.0238,4.0238,4.0237,4.0237,0,3.8695,3.8837,3.8915,3.9018,3.9178,3.9222,3.938,3.944,3.9533,3.9648,3.966,3.9769,3.9829,3.9947,3.9988,4.0155,4.0188,4.022,4.0229,4.022,4.0216,4.0268,4.0256,4.0245,4.0243,4.0242,4.024,0,3.8871,3.8928,3.911,3.9225,3.9258,3.9371,3.9472,3.9573,3.9624,3.9771,3.9808,3.9891,4.0031,4.0091,4.0264,4.0292,4.0483,4.0483,4.0446,4.0449,4.0551,4.0541,4.0868,4.0913,4.0657,4.0659,4.0661,0,3.9005,3.9115,3.9242,3.9319,3.9382,3.9507,3.9589,3.9636,3.9721,3.9854,3.994,4.0079,4.0193,4.0417,4.0494,4.0627,4.063,4.0736,4.0651,4.0638,4.0634,4.0627,4.0639,4.0752,4.0754,4.0756,4.0758,0,3.9239,3.9261,3.9378,3.9505,3.9601,3.9704,3.9805,3.9868,3.9932,4.0027,4.0169,4.0258,4.0433,4.0573,4.071,4.0776,4.0779,4.0784,4.0815,4.0807,4.0782,4.0798,4.049,4.0777,4.0775,4.0773,4.0772,4.0772,3.9399,3.9497,3.9601,3.9731,3.9811,3.9904,4.0005,4.0068,4.0187,4.0332,4.0353,4.0505,4.0613,4.0797,4.0869,4.099,4.0964,4.1009,4.1021,4.1032,4.1039,4.0761,4.1015,4.1015,4.1014,4.1014,4.1013,0,3.9634,3.9701,3.9819,3.9959,4.0061,4.0052,4.0163,4.025,4.0383,4.0481,4.0593,4.0757,4.0892,4.0979,4.1116,4.1196,4.1201,4.1231,4.1226,4.1242,4.1053,4.1013,4.1225,4.1225,4.1225,4.1224,4.1224,4.1224,3.9769,3.9933,3.9968,4.0174,4.024,4.0387,4.0452,4.0539,4.0618,4.0799,4.0911,4.0965,4.1061,4.1204,4.1329,4.1351,4.1402,4.1433,4.1454,4.1277,4.1255,4.1234,4.1196,4.1443,4.1444,4.1633,4.1635,4.1636]},{"header":{"parameterUnit":"m.s-1","parameterCategory":1,"la1":30.2991,"la2":30.254,"lo1":-89.0895,"lo2":-89.0444,"dy":0.0017,"dx":0.0017,"nx":28,"ny":28,"refTime":"2025-08-19T09:00:00:Z","depth":0,"parameterNumber":3,"parameterNumberName":"V-component_of_WINDS"},"data":[0,0,0,0,0,0,0,0,0,0,0,0,0,0,0,0,0,0,0,0,0,0,0,0,0,0,0,0,0,0,0,0,0,0,0,0,0,0,0,0,0,0,0,0,0,0,0,0,0,0,0,0,0,0,0,0,0,0,-1.6953,-1.6953,0,-1.6876,-1.6875,-1.6874,-1.6896,-1.6898,-1.6899,-1.6901,-1.6811,-1.6807,-1.6803,0,0,0,0,0,0,0,0,0,0,0,0,0,-1.7111,-1.7108,-1.6953,-1.6952,-1.6952,-1.6876,-1.6875,-1.6874,-1.6896,-1.6898,-1.69,-1.6902,-1.6812,-1.6807,-1.6803,0,0,0,0,0,0,0,0,0,0,0,0,0,-1.7038,-1.7107,-1.6954,-1.6954,-1.6953,-1.6876,-1.6875,-1.6873,-1.6895,-1.6898,-1.69,-1.6903,-1.6814,-1.6808,-1.6802,-1.6717,0,0,-1.6784,-1.6782,0,0,0,0,0,0,0,0,-1.7042,-1.7032,-1.6955,-1.6954,-1.6953,-1.6898,-1.6897,-1.682,-1.6895,-1.6917,-1.6901,-1.6904,-1.6837,-1.683,-1.6809,-1.6713,-1.6709,-1.6784,-1.678,-1.6777,-1.6776,0,0,0,0,0,0,0,-1.7047,-1.7036,-1.6922,-1.6953,-1.6952,-1.6954,-1.6947,-1.6883,-1.6864,-1.6915,-1.6917,-1.6908,-1.6837,-1.6815,-1.6807,-1.6708,-1.6784,-1.6779,-1.6775,-1.6773,-1.6534,-1.6531,0,0,0,0,0,0,-1.7054,-1.704,-1.6925,-1.692,-1.7005,-1.6949,-1.6941,-1.6913,-1.6865,-1.686,-1.6906,-1.6909,-1.6824,-1.6814,-1.6804,-1.6699,-1.6778,-1.6772,-1.6769,-1.6537,-1.6534,-1.653,0,0,0,0,0,0,-1.7058,-1.7044,-1.6928,-1.698,-1.6966,-1.6944,-1.6913,-1.691,-1.6888,-1.6858,-1.6854,-1.6887,-1.6825,-1.6812,-1.6739,-1.6697,-1.6769,-1.6764,-1.654,-1.6536,-1.6532,-1.649,0,0,0,0,0,0,-1.7062,-1.7045,-1.7015,-1.698,-1.6963,-1.6867,-1.691,-1.6907,-1.6879,-1.6883,-1.6839,-1.6834,-1.6826,-1.6747,-1.6733,-1.669,-1.6759,-1.6544,-1.6538,-1.6533,-1.6495,-1.6485,-1.6476,0,0,0,0,0,-1.7068,-1.7005,-1.7014,-1.6999,-1.6926,-1.6864,-1.6854,-1.6849,-1.6876,-1.6844,-1.6824,-1.6836,-1.6704,-1.674,-1.6723,-1.6678,-1.6546,-1.654,-1.6534,-1.6499,-1.6487,-1.6477,0,0,0,0,0,0,-1.7032,-1.7,-1.7009,-1.6934,-1.6902,-1.6868,-1.6828,-1.6837,-1.6794,-1.6799,-1.6791,-1.6781,-1.6705,-1.6684,-1.6724,-1.6592,-1.6629,-1.6619,-1.6608,-1.6596,-1.6587,-1.6592,-1.6755,0,0,0,0,0,-1.7017,-1.6973,-1.6946,-1.6881,-1.6865,-1.6849,-1.6822,-1.6822,-1.6787,-1.6772,-1.6747,-1.671,-1.666,-1.6627,-1.658,-1.6493,-1.6482,-1.6453,-1.6444,-1.6437,-1.6427,-1.6377,-1.6363,-1.651,-1.651,-1.651,0,0,-1.6981,-1.6959,-1.6931,-1.6874,-1.6849,-1.68,-1.6838,-1.6785,-1.6748,-1.6763,-1.6692,-1.6673,-1.663,-1.6549,-1.6512,-1.6529,-1.6385,-1.6429,-1.6423,-1.6417,-1.6369,-1.6355,-1.6342,-1.6505,-1.6506,-1.6507,0,0,-1.6893,-1.6873,-1.6816,-1.6791,-1.6754,-1.6744,-1.673,-1.6695,-1.6684,-1.6613,-1.6623,-1.6577,-1.6492,-1.6461,-1.6434,-1.6334,-1.6341,-1.6318,-1.6268,-1.6219,-1.6207,-1.6197,-1.6158,-1.6144,-1.6309,-1.6309,-1.6309,0,-1.6853,-1.6784,-1.6785,-1.6731,-1.6704,-1.672,-1.666,-1.6634,-1.6582,-1.6562,-1.6583,-1.6476,-1.6449,-1.6359,-1.6335,-1.6313,-1.6294,-1.6322,-1.621,-1.6199,-1.6189,-1.6152,-1.6137,-1.6306,-1.6307,-1.6307,-1.6307,0,-1.6735,-1.6687,-1.6645,-1.6598,-1.6566,-1.651,-1.6498,-1.6465,-1.6467,-1.6453,-1.6379,-1.6348,-1.6293,-1.6273,-1.6273,-1.6182,-1.6193,-1.6212,-1.6249,-1.6172,-1.6137,-1.6123,-1.6302,-1.6303,-1.6304,-1.6305,0,0,-1.6621,-1.6576,-1.656,-1.6538,-1.6498,-1.6459,-1.6402,-1.6352,-1.6322,-1.6286,-1.6235,-1.6163,-1.618,-1.6149,-1.6146,-1.6103,-1.6022,-1.6127,-1.6125,-1.6106,-1.5916,-1.59,-1.5884,-1.6028,-1.6025,-1.6023,-1.5918,0,-1.6527,-1.643,-1.6429,-1.6338,-1.6291,-1.6305,-1.6255,-1.6223,-1.6208,-1.6163,-1.6146,-1.6094,-1.6122,-1.6104,-1.6062,-1.604,-1.5983,-1.6048,-1.5976,-1.5974,-1.5984,-1.5866,-1.5849,-1.5752,-1.5905,-1.5902,-1.5901,0,-1.6404,-1.6367,-1.6272,-1.6238,-1.6218,-1.6174,-1.6127,-1.6085,-1.6048,-1.604,-1.6006,-1.6009,-1.5947,-1.5987,-1.5899,-1.5943,-1.5914,-1.5898,-1.5894,-1.5885,-1.5931,-1.585,-1.5721,-1.5705,-1.5879,-1.5881,-1.5883,0,-1.6326,-1.6252,-1.6186,-1.6167,-1.6126,-1.6094,-1.6075,-1.6041,-1.601,-1.5968,-1.5947,-1.5897,-1.5869,-1.5828,-1.5816,-1.5848,-1.5726,-1.5767,-1.5714,-1.5715,-1.5686,-1.5687,-1.5547,-1.5672,-1.5672,-1.5672,-1.5673,0,-1.622,-1.6161,-1.615,-1.6109,-1.6042,-1.6039,-1.5972,-1.5954,-1.5924,-1.5876,-1.5885,-1.5839,-1.5828,-1.5779,-1.5768,-1.5695,-1.5682,-1.5671,-1.5669,-1.5669,-1.567,-1.5647,-1.5652,-1.5669,-1.5669,-1.567,-1.5671,0,-1.6121,-1.6112,-1.604,-1.6008,-1.5999,-1.595,-1.5921,-1.5879,-1.5867,-1.5807,-1.5792,-1.577,-1.5713,-1.5698,-1.5629,-1.5622,-1.5534,-1.5539,-1.5547,-1.5546,-1.5494,-1.5498,-1.5332,-1.5308,-1.5451,-1.545,-1.5449,0,-1.6052,-1.6007,-1.5972,-1.5942,-1.5923,-1.5875,-1.5844,-1.584,-1.5807,-1.5761,-1.5723,-1.5668,-1.5624,-1.5531,-1.5506,-1.5453,-1.5455,-1.54,-1.5446,-1.5447,-1.545,-1.5452,-1.5445,-1.539,-1.5389,-1.5388,-1.5387,0,-1.593,-1.5928,-1.5886,-1.5841,-1.5806,-1.5769,-1.5735,-1.5709,-1.5699,-1.5661,-1.5604,-1.557,-1.5501,-1.5444,-1.539,-1.5366,-1.5372,-1.5373,-1.5357,-1.5355,-1.5361,-1.5354,-1.552,-1.5376,-1.5377,-1.5378,-1.5378,-1.5379,-1.5842,-1.5802,-1.5771,-1.5722,-1.5697,-1.5664,-1.5623,-1.5606,-1.556,-1.5505,-1.5504,-1.5442,-1.5403,-1.5332,-1.5305,-1.5253,-1.5269,-1.5247,-1.5241,-1.5235,-1.5229,-1.5372,-1.5244,-1.5244,-1.5244,-1.5245,-1.5245,0,-1.5718,-1.5699,-1.5655,-1.5607,-1.5568,-1.5583,-1.5545,-1.551,-1.5456,-1.5422,-1.5378,-1.5312,-1.5257,-1.5229,-1.5173,-1.5137,-1.5138,-1.5122,-1.5123,-1.5117,-1.522,-1.5238,-1.5122,-1.5122,-1.5122,-1.5122,-1.5122,-1.5122,-1.5649,-1.5581,-1.5575,-1.5493,-1.5474,-1.5415,-1.5392,-1.536,-1.5332,-1.5259,-1.5215,-1.5198,-1.5165,-1.5107,-1.5056,-1.5049,-1.5026,-1.5007,-1.5001,-1.5097,-1.511,-1.5122,-1.5138,-1.5003,-1.5003,-1.4902,-1.4901,-1.49]}]]